Hourly Data Report for March 15, 2015

All times are specified in Local Standard Time (LST). Add 1 hour to adjust for Daylight Saving Time where and when it is observed.

MIRAMICHI RCS
NEW BRUNSWICK

47°00'34.000" N
65°27'54.000" W
33.00 m
8100989
71744
ACQ

Download Data

Hourly Data (March 2015)
Hourly Data Report for March 15, 2015
TIME Temp Definition
°C
Dew Point Definition
°C
Rel Hum Definition
%
Wind Dir Definition
10's deg

Wind Spd Definition
km/h
Visibility Definition
km
Stn Press Definition
kPa
Hmdx Definition


Wind Chill Definition


Weather Definition


00:00 -6.7 -11.6 68 4 8   101.54   -11 LegendNANA
01:00 -6.4 -10.8 71 6 9   101.45   -11 LegendNANA
02:00 -6.5 -10.2 75 4 9   101.41   -11 LegendNANA
03:00 -6.2 -10.2 74 5 12   101.32   -11 LegendNANA
04:00 -6.0 -11.1 67 5 15   101.18   -12 LegendNANA
05:00 -5.1 -12.9 55 7 19   101.15   -12 LegendNANA
06:00 -5.7 -10.1 71 6 24   101.13   -13 LegendNANA
07:00 -5.8 -10.5 69 6 31   101.04   -14 LegendNANA
08:00 -6.0 -11.7 64 7 33   100.98   -15 LegendNANA
09:00 -6.8 -10.2 77 7 40   100.90   -16 LegendNANA
10:00 -7.1 -10.6 76 6 35   100.80   -16 LegendNANA
11:00 -6.7 -9.7 80 5 40   100.68   -16 LegendNANA
12:00 -5.9 -10.3 71 5 35   100.57   -15 LegendNANA
13:00 -5.6 -10.0 71 5 35   100.47   -14 LegendNANA
14:00 -6.1 -9.3 78 4 40   100.44   -16 LegendNANA
15:00 -6.8 -8.5 87 4 38   100.42   -16 LegendNANA
16:00 -6.7 -7.9 91 5 33   100.44   -16 LegendNANA
17:00 -6.4 -7.7 91 4 31   100.44   -15 LegendNANA
18:00 -6.7 -8.1 89 4 31   100.45   -15 LegendNANA
19:00 -7.5 -8.7 91 3 25   100.48   -16 LegendNANA
20:00 -7.5 -8.8 91 3 30   100.48   -16 LegendNANA
21:00 -7.3 -8.6 90 3 23   100.49   -15 LegendNANA
22:00 -6.9 -8.4 89 3 27   100.48   -15 LegendNANA
23:00 -6.3 -8.3 85 3 21   100.45   -13 LegendNANA

Notes on Data Quality.

Legend

  • E = Estimated
  • M = Missing
  • NA = Not Available
Date modified: